{"data":{"norad_id":67906,"epoch":"2026-09-19T06:25:39.830304Z","epoch_age_seconds":169621,"freshness":"FRESH","line1":"1 67906U 26036C   26262.26782211  .00010246  00000+0  38128-3 0  9999","line2":"2 67906  42.9980 232.3661 0001299 267.8613  92.2090 15.27585258 33320","mean_motion":15.27585258,"eccentricity":0.0001299,"inclination_deg":42.998,"raan_deg":232.3661,"arg_perigee_deg":267.8613,"mean_anomaly_deg":92.209,"bstar":0.00038128,"rev_number":3332,"period_min":94.266424244322,"perigee_km":482.14208571257,"apogee_km":483.92461776995,"semimajor_km":6861.1703517413,"source":"CELESTRAK","updated_at":"2026-09-20T09:00:43.701203Z"}}